Date,TemperatureHighF,TemperatureAvgF,TemperatureLowF,DewpointHighF,DewpointAvgF,DewpointLowF,HumidityHigh,HumidityAvg,HumidityLow,PressureMaxIn,PressureMinIn,WindSpeedMaxMPH,WindSpeedAvgMPH,GustSpeedMaxMPH,PrecipitationSumIn
2013-1-1,40,36,26,31,25,9,73,63,49,29.92,29.74,37,18,37,0.00
2013-1-2,31,26,21,21,15,10,76,62,50,30.07,29.91,39,16,39,0.00
2013-1-3,32,24,15,26,11,3,76,58,41,30.13,30.00,36,13,36,0.00
2013-1-4,39,35,32,29,26,23,76,69,59,30.00,29.86,34,18,35,0.00
2013-1-5,45,36,27,31,26,23,87,66,44,30.24,29.90,33,11,33,0.00
2013-1-6,44,37,29,38,34,25,93,86,76,30.19,29.92,31,9,31,0.01
2013-1-7,39,37,36,33,32,31,82,80,77,30.14,29.96,25,12,27,0.00
2013-1-8,45,42,27,39,36,25,96,77,67,30.40,30.30,35,19,35,0.00
2013-1-9,48,41,32,44,38,30,97,88,77,30.36,30.04,25,11,40,0.00
2013-1-10,48,43,37,38,30,27,78,61,47,30.49,30.10,21,15,36,0.00
2013-1-11,44,40,33,43,36,27,96,85,67,30.48,30.13,26,8,26,0.16
2013-1-12,45,44,43,45,43,41,98,97,95,30.14,30.06,23,10,26,0.01
2013-1-13,49,45,43,49,45,42,99,98,97,30.14,30.00,19,8,20,0.00
2013-1-14,51,48,46,51,48,46,99,99,99,30.02,29.94,26,15,26,0.00
2013-1-15,40,38,36,36,34,31,95,83,75,30.27,30.16,22,8,33,0.14
2013-1-16,38,36,35,37,34,32,97,93,78,30.19,30.01,25,12,25,0.48
2013-1-17,44,39,33,37,32,25,94,78,66,30.04,29.84,20,12,31,0.00
2013-1-18,34,27,22,27,14,4,94,58,36,30.47,29.97,23,14,34,0.04
2013-1-19,45,39,30,38,32,20,77,73,65,30.41,30.15,45,28,49,0.00
2013-1-20,48,44,31,44,36,17,90,72,45,29.93,29.62,30,23,43,0.00
2013-1-21,31,28,24,29,20,12,95,72,49,30.08,29.75,17,7,32,0.23
2013-1-22,27,22,16,26,11,2,95,65,46,30.07,29.72,26,15,40,0.08
2013-1-23,19,15,11,4,1,-2,64,54,45,30.16,30.06,25,16,40,0.00
2013-1-24,23,16,11,4,1,-2,71,52,38,30.27,30.07,46,20,46,0.00
2013-1-25,17,15,14,6,4,2,65,61,58,30.31,30.25,37,18,37,0.00
2013-1-26,28,21,16,20,12,5,96,68,49,30.25,29.97,26,15,39,0.00
2013-1-27,33,25,18,13,9,6,69,52,36,30.44,30.25,21,15,35,0.00
2013-1-28,38,30,20,37,23,8,96,77,49,30.43,29.96,15,8,23,0.12
2013-1-29,41,36,32,40,34,31,95,93,87,30.15,29.96,13,6,19,0.00
2013-1-30,52,49,41,51,48,40,98,97,95,30.12,29.48,50,20,50,0.00
2013-1-31,54,45,33,53,38,17,98,76,51,29.66,29.07,60,31,60,0.31
2013-2-1,33,29,24,23,14,6,66,53,41,30.12,29.65,49,20,49,0.00
2013-2-2,31,27,22,26,16,6,92,64,47,30.26,30.03,37,16,37,0.01
2013-2-3,34,28,22,27,21,17,100,76,61,30.03,29.69,23,8,23,0.02
2013-2-4,32,28,25,19,15,9,75,58,45,29.94,29.72,38,16,38,0.00
2013-2-5,29,28,27,22,19,12,81,68,51,29.95,29.92,19,6,21,0.00
2013-2-6,39,33,29,31,26,9,95,77,41,30.28,29.87,21,11,32,0.00
2013-2-7,32,28,22,23,14,8,75,56,43,30.48,30.28,16,9,26,0.00
2013-2-8,36,33,26,35,31,24,97,93,77,30.40,29.28,76,31,76,1.05
2013-2-9,27,23,18,25,18,9,100,84,64,30.18,29.35,56,26,56,0.00
2013-2-10,35,26,18,23,16,8,82,65,47,30.39,30.18,35,12,35,0.00
2013-2-11,47,40,28,46,37,17,98,90,58,30.33,29.61,41,13,48,0.21
2013-2-12,41,38,36,40,37,35,98,98,94,29.72,29.61,22,10,22,0.00
2013-2-13,41,36,32,31,28,24,85,72,58,29.88,29.63,18,7,25,0.00
2013-2-14,44,36,31,32,30,27,96,80,55,29.99,29.65,22,11,22,0.05
2013-2-15,40,38,37,38,36,32,94,91,82,30.01,29.98,20,12,20,0.00
2013-2-21,36,29,26,20,17,15,73,62,50,30.17,29.80,25,20,40,0.00
2013-2-22,39,33,27,30,25,20,78,72,62,30.32,30.16,25,13,34,0.00
2013-2-23,39,37,35,38,34,28,97,88,78,30.28,29.76,21,13,32,0.30
2013-2-24,41,37,33,41,36,32,98,96,91,29.84,29.58,25,18,34,0.07
2013-2-25,42,36,32,35,32,30,95,86,74,30.21,29.84,15,7,24,0.00
2013-2-26,40,37,33,36,33,30,96,84,67,30.30,30.03,19,8,32,0.00
2013-2-27,44,42,38,44,41,36,98,97,92,30.02,29.52,45,17,45,0.82
2013-2-28,43,39,37,41,38,36,98,95,88,29.60,29.49,19,4,19,0.00
2013-3-1,50,41,34,38,34,28,100,78,53,29.66,29.49,22,10,23,0.00
2013-3-2,42,37,33,32,29,27,83,73,60,29.68,29.60,27,11,27,0.00
2013-3-3,39,35,31,30,28,26,87,75,66,29.62,29.55,27,11,27,0.00
2013-3-4,38,31,29,28,25,23,85,76,62,29.65,29.60,31,17,33,0.00
2013-3-5,46,35,30,31,26,24,78,71,56,29.90,29.74,31,17,33,0.00
2013-3-6,41,38,32,38,35,30,95,90,83,29.99,29.80,54,27,56,0.01
2013-3-7,38,34,31,35,32,30,95,92,86,29.89,29.75,61,36,61,0.02
2013-3-8,40,34,30,34,30,27,94,87,61,30.02,29.83,52,28,52,0.02
2013-3-9,46,38,34,35,30,25,92,72,60,30.28,30.01,45,21,45,0.00
2013-3-10,42,37,32,35,33,30,94,86,73,30.35,30.28,24,10,25,0.00
2013-3-11,45,39,31,42,37,29,100,93,89,30.31,30.12,18,8,18,0.00
2013-3-12,46,44,42,45,43,41,100,97,96,30.13,29.93,27,14,27,0.00
2013-3-13,48,42,37,46,36,32,98,78,56,29.78,29.70,21,13,31,0.03
2013-3-14,40,34,28,34,23,14,92,66,44,29.85,29.72,27,15,44,0.01
2013-3-15,40,34,27,33,22,12,82,62,49,29.88,29.67,27,18,40,0.00
2013-3-16,40,34,32,31,24,16,86,68,38,29.85,29.69,20,10,30,0.00
2013-3-17,42,34,29,29,17,10,82,50,32,30.25,29.84,30,13,30,0.00
2013-3-18,35,31,25,30,19,9,84,61,47,30.40,30.11,29,13,30,0.00
2013-3-19,41,37,33,40,36,29,97,95,83,30.11,29.51,37,19,39,0.80
2013-3-20,41,36,31,33,27,22,93,71,53,29.80,29.67,26,16,39,0.00
2013-3-21,40,34,30,34,28,24,96,80,63,29.80,29.56,19,11,28,0.08
2013-3-22,40,34,27,29,25,19,96,67,56,29.76,29.60,21,16,38,0.00
2013-3-23,47,39,34,31,25,22,74,58,38,29.81,29.66,23,17,37,0.00
2013-3-24,46,38,32,33,28,21,81,67,51,29.84,29.68,21,11,33,0.00
2013-3-25,42,38,32,38,33,29,94,84,73,29.73,29.39,41,18,41,0.01
2013-3-26,37,36,34,35,32,30,93,87,81,29.62,29.43,32,14,33,0.00
2013-3-27,50,42,33,34,30,26,80,65,50,29.83,29.75,21,11,32,0.00
2013-3-28,48,41,36,38,34,31,87,76,62,30.01,29.82,17,9,24,0.00
2013-3-29,52,46,38,39,37,34,87,72,57,30.04,29.97,29,12,30,0.00
2013-3-30,50,45,41,39,36,32,84,71,53,30.09,30.00,29,13,29,0.00
2013-3-31,41,40,38,38,36,34,92,84,80,30.10,30.08,13,7,13,0.00
2013-4-1,47,43,36,45,39,22,97,88,56,29.80,29.57,24,18,34,0.07
2013-4-2,41,36,32,23,20,16,67,52,40,29.98,29.83,24,17,38,0.00
2013-4-3,45,38,32,29,19,14,56,47,38,30.19,29.98,24,19,37,0.00
2013-4-4,42,36,31,32,23,16,71,58,45,30.32,30.18,23,15,35,0.00
2013-4-5,52,45,42,44,36,24,92,72,40,29.86,29.63,33,13,36,0.05
2013-4-6,42,38,36,29,28,24,70,66,58,30.07,29.86,31,17,31,0.00
2013-4-9,47,46,44,46,45,43,98,97,95,30.05,29.91,26,15,26,0.00
2013-4-10,62,49,43,52,45,42,97,89,68,30.00,29.81,23,10,40,0.14
2013-4-11,43,43,43,43,42,42,98,97,97,29.88,29.77,13,4,13,0.03
2013-4-12,43,41,38,40,38,35,97,91,75,30.08,29.67,41,20,41,1.03
2013-4-13,52,43,38,43,40,36,97,87,65,29.94,29.63,40,15,40,0.03
2013-4-14,56,47,42,44,39,28,94,73,44,30.19,29.92,32,13,32,0.00
2013-4-15,42,41,40,33,31,30,75,69,63,30.21,30.17,17,10,17,0.00
2013-8-19,72,69,68,65,64,60,88,84,71,29.90,29.86,19,10,20,0.00
2013-8-20,76,70,66,66,63,60,93,80,60,29.99,29.88,24,10,24,0.00
2013-8-21,77,71,68,70,66,64,98,86,71,30.03,29.93,20,9,21,0.00
2013-8-22,74,70,68,70,68,67,100,97,87,29.95,29.73,24,12,25,0.00
2013-8-23,75,70,66,69,64,59,100,83,65,29.97,29.70,19,9,21,0.00
2013-8-24,70,66,62,62,55,50,90,70,50,30.22,29.97,23,10,24,0.00
2013-8-25,71,67,62,64,60,55,92,81,60,30.24,30.10,22,9,24,0.00
2013-8-26,70,68,67,67,64,62,98,89,84,30.11,29.80,32,17,33,0.20
2013-8-27,72,68,67,69,67,66,100,99,91,29.80,29.69,18,9,20,0.72
2013-8-28,74,69,66,70,68,66,100,97,83,29.81,29.73,16,5,17,0.00
2013-8-29,69,66,62,67,64,59,100,96,90,29.92,29.79,24,14,28,0.00
2013-8-30,70,67,61,68,65,59,99,95,88,29.90,29.75,23,12,24,0.00
2013-8-31,72,70,69,71,70,68,99,98,95,29.77,29.71,25,16,27,0.00
2013-9-1,74,72,70,72,71,70,100,98,96,29.77,29.71,22,12,24,0.00
2013-9-2,74,72,70,74,72,69,100,100,99,29.75,29.61,20,9,20,0.67
2013-9-3,72,70,68,100,69,63,100,98,87,29.72,29.59,20,7,24,2.04
2013-9-4,72,68,64,67,62,59,96,83,67,29.84,29.71,27,12,28,0.00
2013-9-5,71,67,62,67,62,56,96,84,68,30.00,29.78,18,9,20,0.00
2013-9-6,64,61,56,57,49,43,90,65,48,30.11,29.99,22,9,24,0.00
2013-9-7,68,65,61,60,54,49,82,69,57,30.00,29.77,25,12,26,0.00
2013-9-8,75,68,60,64,57,41,93,71,42,29.95,29.65,29,14,31,0.00
2013-9-9,64,61,54,54,49,40,79,66,49,30.13,29.93,26,10,31,0.00
2013-9-10,71,68,64,68,62,53,98,84,67,30.07,29.89,34,17,37,0.00
2013-9-11,74,70,68,71,69,67,100,97,89,29.99,29.89,27,16,28,0.00
2013-9-12,72,71,68,71,70,67,100,97,94,29.91,29.59,29,16,30,0.04
2013-9-13,73,69,64,70,67,59,100,94,81,29.64,29.49,23,9,25,0.09
2013-9-14,65,61,57,59,54,51,89,79,68,29.96,29.63,21,10,24,0.00
2013-9-15,64,59,54,57,51,46,88,76,56,30.07,29.96,21,9,21,0.00
2013-9-16,66,62,54,61,56,41,93,82,63,30.06,29.90,32,9,34,0.00
2013-9-17,59,53,48,43,40,36,79,62,43,30.27,30.05,32,15,32,0.00
2013-9-18,64,59,52,54,46,37,83,64,38,30.22,30.05,18,8,19,0.00
2013-9-19,66,63,59,59,57,53,96,82,70,30.06,29.94,25,11,25,0.00
2013-9-20,69,64,61,64,61,57,99,91,71,29.98,29.91,15,8,16,0.00
2013-9-21,70,66,62,67,64,60,98,92,86,29.93,29.63,24,11,27,0.00
2013-9-22,69,65,55,67,59,45,100,83,61,29.72,29.52,32,12,32,0.34
2013-9-23,61,55,50,47,45,42,82,69,58,29.88,29.71,25,11,25,0.00
2013-9-24,63,55,48,53,45,40,79,71,62,29.88,29.71,23,11,24,0.00
2013-9-25,66,59,53,53,50,46,85,72,57,29.85,29.75,16,7,17,0.00
2013-9-26,62,59,56,53,50,46,80,73,59,29.99,29.84,18,8,19,0.00
2013-9-27,63,59,57,54,52,49,86,78,70,30.14,29.97,20,10,23,0.00
2013-9-28,68,60,55,57,54,48,95,81,60,30.19,30.11,17,7,17,0.00
2013-9-29,61,59,56,58,52,48,94,81,71,30.13,29.96,20,9,20,0.00
2013-9-30,64,60,56,58,56,55,98,89,75,29.96,29.84,20,9,23,0.00
2013-10-1,70,64,57,62,58,54,97,83,59,29.85,29.75,19,8,19,0.00
2013-10-2,72,67,63,63,62,59,92,84,66,29.87,29.75,22,9,24,0.00
2013-10-3,73,66,60,63,55,47,90,69,42,29.98,29.86,18,8,19,0.00
2013-10-4,70,64,61,66,60,55,97,88,75,29.96,29.89,18,8,19,0.00
2013-10-5,65,62,61,61,60,59,98,93,83,30.00,29.91,17,7,18,0.00
2013-10-6,64,62,60,63,60,58,99,95,91,30.06,29.97,18,8,20,0.09
2013-10-7,70,67,64,69,66,63,100,99,93,29.97,29.78,29,13,31,0.01
2013-10-8,65,62,59,53,48,44,77,60,48,30.21,30.05,23,10,26,0.00
2013-10-9,60,57,56,50,48,45,77,71,60,30.28,30.16,31,17,31,0.00
2013-10-10,62,59,56,59,55,49,94,88,77,30.18,29.96,28,17,30,0.00
2013-10-11,65,61,59,61,58,51,96,89,75,29.98,29.91,28,16,30,0.00
2013-10-12,63,60,56,58,54,48,89,83,69,30.20,29.96,38,18,38,0.00
2013-10-13,59,56,53,52,49,45,85,78,70,30.28,30.14,31,15,32,0.00
2013-10-14,58,54,52,50,48,45,90,78,71,30.27,30.14,15,6,15,0.00
2013-10-15,61,58,54,55,52,47,93,83,61,30.15,30.01,17,8,18,0.00
2013-10-16,62,59,55,59,56,51,98,91,82,30.02,29.80,23,10,23,0.00
2013-10-17,64,61,59,62,60,58,100,97,93,29.81,29.63,24,11,25,0.00
2013-10-18,64,63,58,63,55,45,100,79,59,29.83,29.54,32,14,32,0.02
2013-10-19,62,59,55,55,48,43,85,68,55,29.88,29.64,21,8,22,0.00
2013-10-20,61,58,54,59,44,35,96,62,44,29.92,29.59,29,12,30,0.00
2013-10-21,60,58,53,50,45,39,73,63,50,30.02,29.89,27,11,27,0.00
2013-10-22,62,60,52,56,53,45,87,79,72,29.90,29.61,23,12,26,0.00
2013-10-23,52,49,45,45,37,32,82,64,51,29.68,29.44,22,9,24,0.10
2013-10-24,51,48,43,38,33,28,73,58,42,29.80,29.53,31,14,34,0.03
2013-10-25,49,46,43,36,31,28,69,56,44,30.06,29.78,29,13,30,0.00
2013-10-26,56,51,46,43,37,32,72,60,52,30.06,29.75,49,20,49,0.00
2013-10-27,54,52,48,41,36,29,74,54,42,29.97,29.70,33,12,36,0.00
2013-10-28,57,51,46,41,36,32,66,55,46,30.19,29.96,32,11,32,0.00
2013-10-29,52,47,43,37,33,28,74,58,43,30.28,30.17,24,8,24,0.00
2013-10-30,57,53,48,53,44,36,90,71,59,30.23,30.08,18,7,18,0.00
2013-10-31,64,60,55,62,57,52,97,93,89,30.12,29.73,36,14,39,0.01
2013-11-1,67,64,61,65,61,58,98,93,88,29.74,29.44,49,25,52,0.01
2013-11-2,64,60,58,61,54,48,100,84,70,29.61,29.49,20,7,24,0.00
2013-11-3,58,47,37,50,37,21,85,70,43,30.24,29.60,32,15,33,0.00
2013-11-4,43,39,36,31,27,21,70,60,52,30.54,30.22,30,14,32,0.00
2013-11-5,50,45,40,39,34,29,72,65,55,30.56,30.40,14,5,15,0.00
2013-11-6,59,54,48,57,48,39,93,80,71,30.40,29.98,28,11,28,0.00
2013-11-7,61,56,45,61,54,37,100,93,72,29.98,29.59,42,17,42,0.01
2013-11-8,49,44,40,37,31,24,74,59,44,30.01,29.71,38,15,38,0.01
2013-11-9,50,43,39,39,30,24,67,57,47,30.11,29.92,33,14,36,0.00
2013-11-10,57,52,47,44,39,33,72,62,51,29.93,29.62,41,18,43,0.00
2013-11-11,54,48,43,46,34,28,73,59,52,30.01,29.78,39,19,41,0.00
2013-11-12,54,39,31,46,30,18,93,68,55,30.05,29.77,33,18,40,0.04
2013-11-13,38,32,28,26,18,14,69,54,40,30.15,30.03,29,14,31,0.00
2013-11-14,50,44,38,33,29,24,72,55,38,30.09,29.96,34,18,35,0.00
2013-11-15,55,52,48,48,41,28,85,67,41,30.13,30.05,28,16,29,0.00
2013-11-16,54,52,50,50,44,33,93,73,51,30.21,30.10,22,10,22,0.00
2013-11-17,60,57,52,60,56,50,100,94,84,30.19,29.74,19,9,21,0.03
2013-11-18,63,59,51,62,54,37,100,85,56,29.74,29.49,44,18,45,0.39
2013-11-19,51,43,34,37,26,21,61,51,41,30.16,29.57,34,16,37,0.00
2013-11-20,40,35,30,23,18,14,61,48,34,30.46,30.15,26,12,27,0.00
2013-11-21,49,42,36,41,33,21,75,67,49,30.49,30.27,14,6,16,0.00
2013-11-22,56,53,49,54,50,41,97,88,73,30.28,29.73,29,12,30,0.05
2013-11-23,54,44,32,53,30,18,94,59,35,29.79,29.66,42,17,42,0.00
2013-11-24,32,26,22,21,8,0,59,45,29,30.08,29.65,50,24,52,0.00
2013-11-25,40,28,21,31,15,4,73,54,41,30.26,30.06,40,15,41,0.00
2013-11-26,54,43,38,53,34,26,98,71,55,30.21,29.85,30,11,34,0.18
2013-11-27,61,54,41,61,53,33,100,97,74,29.85,29.08,62,21,62,1.77
2013-11-28,41,33,29,33,20,11,74,56,42,30.31,29.40,38,16,42,0.00
2013-11-29,35,32,28,21,17,11,57,51,46,30.57,30.30,26,9,26,0.00
2013-11-30,41,32,24,31,22,11,81,64,46,30.61,30.29,20,8,20,0.00
2013-12-1,55,49,41,53,45,31,100,86,65,30.29,29.87,29,12,29,0.02
2013-12-2,46,45,43,46,44,42,100,96,91,29.88,29.76,14,6,14,0.00
2013-12-3,50,44,39,44,40,36,100,84,59,29.84,29.72,17,9,18,0.00
2013-12-4,50,44,41,47,37,29,86,76,55,30.07,29.84,15,6,17,0.00
2013-12-5,57,55,50,57,54,46,100,96,86,30.07,29.85,24,10,25,0.00
2013-12-6,56,53,43,56,52,42,100,98,94,29.96,29.79,26,13,28,0.30
2013-12-7,44,39,33,43,32,24,98,78,62,30.32,29.90,27,13,28,0.11
2013-12-8,38,32,29,35,22,16,88,65,53,30.45,30.25,25,10,26,0.00
2013-12-9,52,45,38,52,44,35,100,97,86,30.29,29.77,34,14,36,0.24
2013-12-10,44,39,32,40,37,23,100,90,69,29.91,29.66,34,10,35,0.14
2013-12-11,34,32,30,24,21,16,70,60,49,30.14,29.88,33,15,35,0.00
2013-12-12,33,25,23,24,12,4,67,54,41,30.13,29.94,27,13,31,0.00
2013-12-13,33,30,26,21,18,14,68,59,50,30.20,29.88,40,17,41,0.00
2013-12-14,43,29,20,42,24,11,98,80,57,30.38,29.83,40,18,40,0.13
2013-12-15,57,43,35,57,40,23,100,90,61,29.84,29.26,43,16,55,0.73
2013-12-16,36,30,25,28,17,11,71,56,44,30.07,29.64,33,13,34,0.01
2013-12-17,47,31,22,47,28,11,99,85,51,30.10,29.72,27,11,29,0.27
2013-12-18,36,33,29,32,26,23,96,77,60,30.00,29.66,29,15,30,0.00
2013-12-19,46,40,33,38,32,24,77,72,65,30.02,29.87,39,16,39,0.00
2013-12-20,53,50,43,52,46,35,98,86,71,30.01,29.86,28,14,30,0.00
2013-12-21,56,54,52,56,53,51,100,97,93,29.92,29.81,27,16,28,0.00
2013-12-22,62,57,54,59,56,54,100,98,83,29.90,29.75,40,20,45,0.01
2013-12-23,59,51,45,58,51,45,100,99,94,29.95,29.78,27,11,28,0.34
2013-12-24,47,37,30,45,29,16,95,71,49,30.09,29.87,30,14,30,0.08
2013-12-25,34,24,20,29,12,8,79,59,48,30.39,30.06,32,11,32,0.00
2013-12-26,48,39,34,47,33,26,94,77,67,30.32,29.95,32,13,33,0.02
2013-12-27,37,35,32,29,25,23,79,66,58,30.18,30.09,28,11,29,0.00
2013-12-28,48,44,36,45,36,26,87,74,62,30.13,29.92,36,18,40,0.00
2013-12-29,58,50,46,58,47,40,100,91,77,29.94,29.20,43,15,47,0.82
2013-12-30,47,39,22,45,32,11,95,76,46,29.99,29.41,32,14,32,0.00
2013-12-31,32,25,20,26,17,11,81,69,57,30.07,29.90,31,10,34,0.00
2014-1-1,31,28,24,18,16,11,67,59,48,30.25,30.05,25,10,27,0.00
2014-1-2,42,36,24,41,33,18,98,89,60,30.16,29.43,51,24,57,0.00